Weather History for KOXC - May, 2013

Change the Weather History Date:

Monday, May 13, 2013

  Actual Average Record
Temperature  
Mean Temperature 43 °F -  
Max Temperature 51 °F 63 °F 80 °F (2004)
Min Temperature 35 °F 43 °F 32 °F (2005)
Degree Days  
Heating Degree Days 22    
Moisture  
Dew Point 27 °F    
Average Humidity 53    
Maximum Humidity 70    
Minimum Humidity 35    
Precipitation  
Precipitation 0.00 in - - ()
Sea Level Pressure  
Sea Level Pressure 29.99 in    
Wind  
Wind Speed 6 mph (WNW)    
Max Wind Speed 12 mph    
Max Gust Speed 20 mph    
Visibility 10 miles    
Events      
Averages and records for this station are not official NWS values.
T = Trace of Precipitation, MM = Missing Value Source: NWS Daily Summary

Daily Weather History Graph

Daily Weather History Graph

Search for Another Location

Airport or City:

Trip Planner

Search our weather history database for the weather conditions in past years. The results will help you decide how hot, cold, wet, or windy it might be!

Date:

Astronomy

May. 13, 2013 Rise Set
Actual Time 5:35 AM EDT 8:03 PM EDT
Civil Twilight 5:03 AM EDT 8:34 PM EDT
Nautical Twilight 4:24 AM EDT 9:13 PM EDT
Astronomical Twilight 3:41 AM EDT 9:57 PM EDT
Moon 8:18 AM EDT (5/13) 11:10 PM EDT (5/13)
Length of Visible Light 15h 30m
Length of Day
14h 27m
Waxing Crescent, 12% of the Moon is Illuminated
May 13
Waxing Crescent
May 18
First Quarter
May 25
Full
May 31
Last Quarter
Jun 8
New

Hourly Weather History & Observations

Time (EDT) Temp. Windchill Dew Point Humidity Pressure Visibility Wind Dir Wind Speed Gust Speed Precip Events Conditions
12:35 AM 46.4 °F 43.5 °F 26.6 °F 46% 29.91 in 10.0 mi West 5.8 mph - N/A   Clear
12:55 AM 46.4 °F 43.5 °F 26.6 °F 46% 29.91 in 10.0 mi West 5.8 mph - N/A   Clear
1:15 AM 46.4 °F 42.4 °F 26.6 °F 46% 29.91 in 10.0 mi West 8.1 mph - N/A   Clear
1:35 AM 46.4 °F 44.3 °F 28.4 °F 50% 29.91 in 10.0 mi West 4.6 mph - N/A   Clear
1:55 AM 44.6 °F 40.7 °F 28.4 °F 53% 29.92 in 10.0 mi West 6.9 mph - N/A   Clear
2:15 AM 44.6 °F 40.2 °F 28.4 °F 53% 29.92 in 10.0 mi West 8.1 mph - N/A   Clear
2:35 AM 44.6 °F 42.2 °F 28.4 °F 53% 29.92 in 10.0 mi West 4.6 mph - N/A   Clear
3:15 AM 42.8 °F 41.1 °F 26.6 °F 53% 29.92 in 10.0 mi West 3.5 mph - N/A   Clear
3:35 AM 42.8 °F 40.1 °F 26.6 °F 53% 29.93 in 10.0 mi West 4.6 mph - N/A   Clear
3:55 AM 42.8 °F 38.6 °F 26.6 °F 53% 29.93 in 10.0 mi West 6.9 mph - N/A   Clear
4:15 AM 42.8 °F 39.3 °F 26.6 °F 53% 29.93 in 10.0 mi West 5.8 mph - N/A   Clear
4:35 AM 42.8 °F 38.6 °F 26.6 °F 53% 29.93 in 10.0 mi West 6.9 mph - N/A   Clear
4:55 AM 42.8 °F 40.1 °F 26.6 °F 53% 29.94 in 10.0 mi West 4.6 mph - N/A   Clear
5:15 AM 41.0 °F 36.4 °F 26.6 °F 57% 29.94 in 10.0 mi West 6.9 mph - N/A   Clear
5:35 AM 41.0 °F 37.1 °F 26.6 °F 57% 29.94 in 10.0 mi West 5.8 mph - N/A   Clear
5:45 AM 41.0 °F 37.1 °F 26.6 °F 57% 29.95 in 10.0 mi West 5.8 mph - N/A   Clear
6:45 AM 41.0 °F 35.8 °F 28.4 °F 61% 29.97 in 10.0 mi West 8.1 mph - N/A   Clear
7:45 AM 44.6 °F 40.2 °F 28.4 °F 53% 29.99 in 10.0 mi West 8.1 mph 17.3 mph N/A   Clear
9:45 AM 48.2 °F - 28.4 °F 46% 30.01 in 10.0 mi WNW 8.1 mph 19.6 mph N/A   Scattered Clouds
10:45 AM 48.2 °F - 24.8 °F 40% 30.02 in 10.0 mi West 6.9 mph 19.6 mph N/A   Scattered Clouds
11:45 AM 50.0 °F - 28.4 °F 43% 30.02 in 10.0 mi WNW 11.5 mph 18.4 mph N/A   Mostly Cloudy
12:45 PM 51.8 °F - 28.4 °F 41% 30.02 in 10.0 mi West 8.1 mph 16.1 mph N/A   Mostly Cloudy
1:45 PM 51.8 °F - 28.4 °F 41% 30.00 in 10.0 mi WNW 6.9 mph 16.1 mph N/A   Mostly Cloudy
2:45 PM 51.8 °F - 26.6 °F 38% 30.00 in 10.0 mi WNW 9.2 mph 16.1 mph N/A   Mostly Cloudy
4:45 PM 51.8 °F - 24.8 °F 35% 29.99 in 10.0 mi North 11.5 mph 18.4 mph N/A   Mostly Cloudy
5:45 PM 51.8 °F - 26.6 °F 38% 29.99 in 10.0 mi NW 11.5 mph - N/A   Mostly Cloudy
6:45 PM 48.2 °F - 26.6 °F 43% 30.00 in 10.0 mi NW 11.5 mph - N/A   Mostly Cloudy
9:15 PM 42.8 °F 41.1 °F 28.4 °F 57% 30.07 in 10.0 mi NNW 3.5 mph - N/A   Clear
9:35 PM 39.2 °F 37.0 °F 28.4 °F 65% 30.08 in 10.0 mi NNW 3.5 mph - N/A   Clear
9:55 PM 39.2 °F - 28.4 °F 65% 30.08 in 10.0 mi Calm Calm - N/A   Clear
10:15 PM 37.4 °F 34.9 °F 28.4 °F 70% 30.08 in 10.0 mi NNW 3.5 mph - N/A   Clear
10:35 PM 37.4 °F 33.8 °F 28.4 °F 70% 30.08 in 10.0 mi North 4.6 mph - N/A   Clear
10:55 PM 37.4 °F 32.8 °F 28.4 °F 70% 30.08 in 10.0 mi NNW 5.8 mph - N/A   Clear
11:15 PM 35.6 °F 32.8 °F 26.6 °F 70% 30.08 in 10.0 mi NNW 3.5 mph - N/A   Clear
11:35 PM 35.6 °F 30.7 °F 26.6 °F 70% 30.08 in 10.0 mi NNW 5.8 mph - N/A   Clear
11:55 PM 37.4 °F 33.8 °F 26.6 °F 65% 30.08 in 10.0 mi NNW 4.6 mph - N/A   Clear